Location: Katowice
(50.2611°N, 19.0242°E)
Time: 09:35:31
(UTC+02:00)

A-11 Canister half - Pass Details

Date: 23 July 2019
Orbit: 1526 x 1683 km, 47.3° (Epoch: 18 August)

Event Time Altitude Azimuth Distance (km) Brightness Sun altitude
Rises 01:55:18 0° 283° (WNW) 4,862 11.6 -18.1°
Reaches altitude 10° 01:58:31 10° 280° (W) 3,853 11.0 -18.0°
Maximum altitude 02:07:58 56° 206° (SSW) 1,830 9.0 -17.5°
Drops below altitude 10° 02:17:05 10° 131° (SE) 3,728 10.8 -17.0°
Sets 02:20:10 0° 127° (SE) 4,695 11.4 -16.8°
